• In Romania
  • List of Countries
  • For 7 days
  • Water Temperature
  • Satellite Maps
  • Weather Map
  • Weather Widgets
  • user-avatar
    Login

    Hourly Weather Prosvet

    Today, 17 October, Wednesday

    Time Temperature Precipitation Wind Pressure Humidity
    00:00 +9°C° 0 mm 2 mps 752 mmHg 88%
    01:00 +9°C° 0 mm 3 mps 752 mmHg 89%
    02:00 +8°C° 0 mm 3 mps 752 mmHg 90%
    03:00 +8°C° 0 mm 2 mps 752 mmHg 92%
    04:00 +8°C° 0 mm 2 mps 751 mmHg 92%
    05:00 +7°C° 0 mm 3 mps 751 mmHg 92%
    06:00 +7°C° 0 mm 3 mps 751 mmHg 92%
    07:00 +8°C° 0 mm 4 mps 751 mmHg 85%
    08:00 +10°C° 0 mm 4 mps 750 mmHg 77%
    09:00 +10°C° 0 mm 5 mps 750 mmHg 70%
    10:00 +12°C° 0 mm 5 mps 750 mmHg 65%
    11:00 +13°C° 0 mm 6 mps 750 mmHg 59%
    12:00 +14°C° 0 mm 6 mps 750 mmHg 54%
    13:00 +14°C° 0 mm 6 mps 750 mmHg 57%
    14:00 +14°C° 0 mm 6 mps 751 mmHg 60%
    15:00 +12°C° 0 mm 7 mps 751 mmHg 64%
    16:00 +11°C° 0 mm 7 mps 751 mmHg 65%
    17:00 +11°C° 0 mm 6 mps 752 mmHg 67%
    18:00 +10°C° 0 mm 6 mps 753 mmHg 69%
    19:00 +9°C° 0 mm 6 mps 753 mmHg 67%
    20:00 +9°C° 0 mm 5 mps 753 mmHg 66%
    21:00 +8°C° 0 mm 4 mps 754 mmHg 65%
    22:00 +7°C° 0 mm 4 mps 754 mmHg 68%
    23:00 +7°C° 0 mm 3 mps 754 mmHg 72%

    Tomorrow, 18 October, Thursday

    Time Temperature Precipitation Wind Pressure Humidity
    00:00 +5°C° 0 mm 3 mps 755 mmHg 75%
    01:00 +5°C° 0 mm 3 mps 755 mmHg 77%
    02:00 +5°C° 0 mm 2 mps 755 mmHg 79%
    03:00 +4°C° 0 mm 2 mps 756 mmHg 81%
    04:00 +4°C° 0 mm 2 mps 756 mmHg 82%
    05:00 +4°C° 0 mm 2 mps 756 mmHg 83%
    06:00 +4°C° 0 mm 1 mps 756 mmHg 84%
    07:00 +5°C° 0 mm 2 mps 756 mmHg 78%
    08:00 +6°C° 0 mm 2 mps 756 mmHg 71%
    09:00 +7°C° 0 mm 2 mps 757 mmHg 64%
    10:00 +8°C° 0 mm 2 mps 756 mmHg 59%
    11:00 +9°C° 0 mm 2 mps 756 mmHg 53%
    12:00 +10°C° 0 mm 2 mps 756 mmHg 47%
    13:00 +12°C° 0 mm 2 mps 756 mmHg 46%
    14:00 +12°C° 0 mm 2 mps 756 mmHg 45%
    15:00 +12°C° 0 mm 2 mps 756 mmHg 44%
    16:00 +10°C° 0 mm 2 mps 755 mmHg 48%
    17:00 +9°C° 0 mm 2 mps 755 mmHg 52%
    18:00 +7°C° 0 mm 2 mps 755 mmHg 56%
    19:00 +7°C° 0 mm 2 mps 755 mmHg 58%
    20:00 +7°C° 0 mm 2 mps 755 mmHg 60%
    21:00 +7°C° 0 mm 2 mps 755 mmHg 61%
    22:00 +5°C° 0 mm 3 mps 754 mmHg 62%
    23:00 +5°C° 0 mm 3 mps 754 mmHg 64%

    Day after tomorrow, 19 October, Friday

    Time Temperature Precipitation Wind Pressure Humidity
    00:00 +5°C° 0 mm 3 mps 754 mmHg 65%
    01:00 +5°C° 0 mm 3 mps 754 mmHg 67%
    02:00 +5°C° 0 mm 4 mps 754 mmHg 69%
    03:00 +5°C° 0 mm 4 mps 754 mmHg 71%
    04:00 +5°C° 0 mm 4 mps 753 mmHg 74%
    05:00 +5°C° 0 mm 4 mps 753 mmHg 77%
    06:00 +5°C° 0 mm 4 mps 753 mmHg 79%
    07:00 +6°C° 0 mm 4 mps 753 mmHg 76%
    08:00 +8°C° 0 mm 5 mps 753 mmHg 73%
    09:00 +9°C° 0 mm 5 mps 753 mmHg 70%
    10:00 +12°C° 0 mm 5 mps 753 mmHg 66%
    11:00 +13°C° 0 mm 5 mps 752 mmHg 62%
    12:00 +14°C° 0 mm 6 mps 752 mmHg 58%
    13:00 +15°C° 0 mm 5 mps 752 mmHg 58%
    14:00 +15°C° 0 mm 5 mps 752 mmHg 57%
    15:00 +15°C° 0 mm 5 mps 751 mmHg 56%
    16:00 +14°C° 0 mm 5 mps 751 mmHg 61%
    17:00 +13°C° 0 mm 5 mps 751 mmHg 65%
    18:00 +12°C° 0 mm 4 mps 751 mmHg 69%
    19:00 +11°C° 0 mm 4 mps 751 mmHg 69%
    20:00 +11°C° 0 mm 4 mps 751 mmHg 69%
    21:00 +11°C° 0 mm 4 mps 751 mmHg 69%
    22:00 +10°C° 0 mm 4 mps 751 mmHg 69%
    23:00 +10°C° 0 mm 4 mps 751 mmHg 68%

    20 October, Saturday

    Time Temperature Precipitation Wind Pressure Humidity
    00:00 +10°C° 0 mm 4 mps 750 mmHg 68%
    01:00 +10°C° 0 mm 4 mps 750 mmHg 66%
    02:00 +8°C° 0 mm 4 mps 750 mmHg 65%
    03:00 +8°C° 0 mm 5 mps 750 mmHg 64%
    04:00 +8°C° 0 mm 5 mps 750 mmHg 62%
    05:00 +8°C° 0 mm 5 mps 749 mmHg 60%
    06:00 +7°C° 0 mm 5 mps 749 mmHg 59%
    07:00 +8°C° 0 mm 5 mps 749 mmHg 56%
    08:00 +9°C° 0 mm 5 mps 749 mmHg 53%
    09:00 +10°C° 0 mm 6 mps 749 mmHg 51%
    10:00 +11°C° 0 mm 6 mps 749 mmHg 50%
    11:00 +13°C° 0 mm 6 mps 749 mmHg 48%
    12:00 +14°C° 0 mm 6 mps 749 mmHg 47%
    13:00 +14°C° 0 mm 6 mps 748 mmHg 49%
    14:00 +15°C° 0 mm 6 mps 748 mmHg 51%
    15:00 +15°C° 0 mm 5 mps 748 mmHg 52%
    16:00 +13°C° 0 mm 5 mps 748 mmHg 59%
    17:00 +12°C° 0 mm 4 mps 748 mmHg 66%
    18:00 +11°C° 0 mm 3 mps 749 mmHg 73%
    19:00 +10°C° 0 mm 3 mps 749 mmHg 76%
    20:00 +10°C° 0 mm 3 mps 749 mmHg 79%
    21:00 +9°C° 0 mm 3 mps 749 mmHg 82%
    22:00 +9°C° 0 mm 2 mps 749 mmHg 83%
    23:00 +8°C° 0 mm 2 mps 750 mmHg 84%

    21 October, Sunday

    Time Temperature Precipitation Wind Pressure Humidity
    00:00 +7°C° 0 mm 2 mps 750 mmHg 86%
    01:00 +6°C° 0 mm 2 mps 750 mmHg 86%
    02:00 +6°C° 0 mm 2 mps 750 mmHg 87%
    03:00 +5°C° 0 mm 2 mps 751 mmHg 87%
    04:00 +5°C° 0 mm 2 mps 751 mmHg 88%
    05:00 +6°C° 0 mm 1 mps 751 mmHg 89%
    06:00 +5°C° 0 mm 1 mps 751 mmHg 90%
    07:00 +5°C° 0 mm 2 mps 751 mmHg 84%
    08:00 +6°C° 0 mm 2 mps 752 mmHg 78%
    09:00 +7°C° 0 mm 2 mps 752 mmHg 73%
    10:00 +8°C° 0 mm 2 mps 752 mmHg 67%
    11:00 +9°C° 0 mm 2 mps 752 mmHg 62%
    12:00 +10°C° 0 mm 2 mps 752 mmHg 57%
    13:00 +10°C° 0 mm 2 mps 752 mmHg 57%
    14:00 +10°C° 0 mm 2 mps 753 mmHg 56%
    15:00 +10°C° 0 mm 2 mps 753 mmHg 55%
    16:00 +9°C° 0 mm 2 mps 753 mmHg 61%
    17:00 +8°C° 0 mm 2 mps 753 mmHg 66%
    18:00 +7°C° 0 mm 2 mps 753 mmHg 71%
    19:00 +6°C° 0 mm 2 mps 754 mmHg 73%
    20:00 +6°C° 0 mm 2 mps 754 mmHg 76%
    21:00 +5°C° 0 mm 2 mps 754 mmHg 78%
    22:00 +5°C° 0 mm 2 mps 754 mmHg 79%
    23:00 +4°C° 0 mm 2 mps 754 mmHg 80%

    22 October, Monday

    Time Temperature Precipitation Wind Pressure Humidity
    00:00 +4°C° 0 mm 2 mps 754 mmHg 81%
    01:00 +4°C° 0 mm 2 mps 755 mmHg 82%
    02:00 +4°C° 0 mm 2 mps 755 mmHg 83%
    03:00 +3°C° 0 mm 2 mps 755 mmHg 84%
    04:00 +3°C° 0 mm 2 mps 755 mmHg 86%
    05:00 +3°C° 0 mm 2 mps 755 mmHg 87%
    06:00 +3°C° 0 mm 1 mps 755 mmHg 89%
    07:00 +3°C° 0 mm 2 mps 755 mmHg 82%
    08:00 +5°C° 0 mm 2 mps 755 mmHg 76%
    09:00 +6°C° 0 mm 2 mps 755 mmHg 70%
    10:00 +7°C° 0 mm 2 mps 755 mmHg 63%
    11:00 +8°C° 0 mm 2 mps 755 mmHg 57%
    12:00 +9°C° 0 mm 2 mps 755 mmHg 50%
    13:00 +9°C° 0 mm 2 mps 755 mmHg 49%
    14:00 +9°C° 0 mm 2 mps 755 mmHg 48%
    15:00 +9°C° 0 mm 2 mps 755 mmHg 47%
    16:00 +8°C° 0 mm 2 mps 755 mmHg 52%
    17:00 +7°C° 0 mm 2 mps 755 mmHg 56%
    18:00 +6°C° 0 mm 2 mps 755 mmHg 61%
    19:00 +5°C° 0 mm 2 mps 755 mmHg 63%
    20:00 +5°C° 0 mm 2 mps 755 mmHg 65%
    21:00 +4°C° 0 mm 2 mps 754 mmHg 67%
    22:00 +4°C° 0 mm 2 mps 754 mmHg 69%
    23:00 +4°C° 0 mm 2 mps 754 mmHg 70%
    Show more